Location: Rounton
(54.4000°N, 1.3500°W)
Time: 17:36:00
(UTC+01:00)

S-56A Canister/Altair - Pass Details

Date: 14 September 2024
Orbit: 636 x 2487 km, 38.9° (Epoch: 06 October)

Event Time Altitude Azimuth Distance (km) Brightness Sun altitude
Rises 01:39:55 0° 264° (W) 4,543 11.3 -31.7°
Enters shadow 01:40:00 - 264° (W) 4,529 11.3 -31.7°
Reaches altitude 10° 01:43:54 10° 247° (WSW) 3,886 - -31.6°
Maximum altitude 01:50:20 18° 209° (SSW) 3,696 - -31.4°
Drops below altitude 10° 01:58:02 10° 172° (S) 4,775 - -31.1°
Sets 02:03:50 0° 157° (SSE) 6,003 - -30.9°
